Location: Bretagne
(43.8474°N, 0.4650°W)
Time: 15:09:00
(UTC+00:00)

Cosmos 1666 Rocket - Visible Passes

Search period start: 19 April 2026 00:00
Search period end: 29 April 2026 00:00
Orbit: 597 x 625 km, 82.5° (Epoch: 19 April)

Date Brightness Start Highest point End Pass type
(mag) Time Alt. Az. Time Alt. Az. Time Alt. Az.
20 Apr 6.9 19:25:58 10° WSW 19:28:42 16° WNW 19:31:28 10° NNW visible
21 Apr 6.9 03:53:55 10° NE 03:56:21 14° ENE 03:58:46 10° ESE visible
22 Apr 6.3 04:07:49 10° NNE 04:11:23 23° ENE 04:14:57 10° SE visible
23 Apr 5.3 04:22:11 10° N 04:26:20 39° ENE 04:30:29 10° SE visible
25 Apr 6.9 03:16:02 10° NE 03:17:48 12° ENE 03:19:34 10° E visible
26 Apr 6.4 03:29:36 10° NNE 03:32:52 20° ENE 03:36:08 10° ESE visible
27 Apr 5.5 03:43:51 10° N 03:47:51 32° ENE 03:51:50 10° SE visible
28 Apr 4.4 03:58:23 10° N 04:02:45 56° E 04:07:06 10° SSE visible
